Find Starlink 34758

NORAD ID: 64945 Int'l Des: 2025-158 Owner: SPXS Country: US Constellation: starlink operational
LEOCIRCULARRETROGRADESSO

現在のビュー

3D地球を読み込み中...

About Starlink 34758

Starlink 34758 (NORAD 64945) is a starlink constellation satellite (v2 mini) launched Jul 27, 2025 by SPXS of US. It operates in LEO, CIRCULAR, RETROGRADE, SSO orbit with a mass of 575.00 kg.

次回通過

Passes for default location (London). Set your location on the main map for personalized predictions.

高度履歴

Loading altitude history...

軌道要素

1 64945U 25158P 26262.03336556 .00020113 00000-0 62340-3 0 9993
2 64945 97.2843 120.3948 0001353 58.4426 301.6949 15.33458075 64486
Epoch: Sep 19, 2026 • Age: 47 hours

現在のステータス

高度 467.6 km
遠地点 / 近地点 N/A
速度 7.63 km/s
衛星直下点 1.80°N, 125.36°E
打ち上げ日 Jul 27, 2025
運用期間 1.1 years
タイプ internet

技術仕様

分類 Payload
質量 575.00 kg
乾燥質量 530.00 kg
長さ 0.30 m
スパン 29.00 m
形状 ? Box + pan
製造者 SPXS
バスタイプ Starlink V2MO
フェーズステータス In Orbit
所有者/国 SPXS/US

Most Searched